SIA4503 ZGHA-WSSS

Flight info

Callsign SIA4503
Flight time N/A
Altitude 39100
Route UBMOG W615 IDAXI R473 NNX/K0907S1160 R473 WYN W18 UBLIM/K0900S1220 W18 NLG/K0904S1190 W18 TAMOT/N0488F400
Aircraft B789/H-SDE1E2E3FGHIJ2J3J4J5M1RWXY/LB1D1

Departure

Time 2026-04-26 04:07
Airport Changsha Huanghua International Airport (ZGHA)

Arrival

Time N/A
Airport Singapore Changi Airport (WSSS)
Time Latitude Longitude Altitude Speed Heading
2026-04-26 04:07 28.09558 113.23258 6232 ft 224 kts 141°
2026-04-26 04:07 28.08600 113.24686 6906 ft 240 kts 107°
2026-04-26 04:08 28.08435 113.26575 7748 ft 244 kts 94°
2026-04-26 04:08 28.08292 113.28522 8513 ft 250 kts 95°
2026-04-26 04:08 28.08149 113.30500 9374 ft 255 kts 93°
2026-04-26 04:08 28.08022 113.32524 10189 ft 260 kts 92°
2026-04-26 04:09 28.07888 113.34627 10707 ft 280 kts 93°
2026-04-26 04:09 28.07736 113.36931 11001 ft 307 kts 93°
2026-04-26 04:09 28.07567 113.39440 11298 ft 333 kts 93°
2026-04-26 04:09 28.07387 113.42150 11615 ft 358 kts 93°
2026-04-26 04:10 28.07260 113.44056 11790 ft 374 kts 93°
2026-04-26 04:10 28.06762 113.48122 12084 ft 403 kts 97°
2026-04-26 04:10 28.06534 113.50213 12643 ft 404 kts 96°
2026-04-26 04:10 28.06211 113.53396 13352 ft 411 kts 96°
2026-04-26 04:11 28.05679 113.57720 14269 ft 418 kts 98°
2026-04-26 04:11 28.05362 113.59878 14692 ft 422 kts 102°
2026-04-26 04:11 28.04341 113.63002 15315 ft 426 kts 119°
2026-04-26 04:11 28.02627 113.65734 16002 ft 427 kts 135°
2026-04-26 04:12 28.00335 113.67873 16597 ft 429 kts 152°
2026-04-26 04:12 27.97619 113.69239 17182 ft 428 kts 167°
2026-04-26 04:12 27.94699 113.69846 17759 ft 428 kts 175°
2026-04-26 04:12 27.91735 113.70325 18353 ft 432 kts 176°
2026-04-26 04:13 27.88742 113.70783 18857 ft 436 kts 176°
2026-04-26 04:13 27.84735 113.71417 19533 ft 441 kts 175°
2026-04-26 04:13 27.82679 113.71752 19885 ft 444 kts 175°
2026-04-26 04:13 27.79604 113.72246 20354 ft 449 kts 175°
2026-04-26 04:14 27.76497 113.72736 20899 ft 452 kts 176°
2026-04-26 04:14 27.73372 113.73229 21365 ft 456 kts 175°
2026-04-26 04:14 27.70262 113.73725 21828 ft 459 kts 175°
2026-04-26 04:14 27.67045 113.74238 22274 ft 463 kts 175°
2026-04-26 04:15 27.63887 113.74738 22713 ft 466 kts 175°
2026-04-26 04:15 27.60667 113.75247 23158 ft 469 kts 175°
2026-04-26 04:15 27.57417 113.75762 23573 ft 473 kts 175°
2026-04-26 04:15 27.54154 113.76280 23914 ft 475 kts 175°
2026-04-26 04:16 27.50868 113.76801 24268 ft 478 kts 176°
2026-04-26 04:16 27.47571 113.77322 24592 ft 480 kts 176°
2026-04-26 04:16 27.44252 113.77846 24935 ft 483 kts 176°
2026-04-26 04:16 27.40913 113.78374 25257 ft 486 kts 176°
2026-04-26 04:17 27.37562 113.78904 25575 ft 488 kts 176°
2026-04-26 04:17 27.34183 113.79436 25852 ft 491 kts 176°
2026-04-26 04:17 27.30798 113.79970 26192 ft 493 kts 176°
2026-04-26 04:17 27.27390 113.80508 26520 ft 496 kts 176°
2026-04-26 04:18 27.23968 113.81047 26807 ft 498 kts 176°
2026-04-26 04:18 27.20527 113.81588 27122 ft 500 kts 176°
2026-04-26 04:18 27.17073 113.82132 27405 ft 503 kts 176°
2026-04-26 04:18 27.13598 113.82678 27703 ft 505 kts 176°
2026-04-26 04:19 27.10103 113.83227 27983 ft 508 kts 176°
2026-04-26 04:19 27.06595 113.83778 28260 ft 510 kts 176°
2026-04-26 04:19 27.03070 113.84331 28519 ft 513 kts 176°
2026-04-26 04:19 26.99525 113.84888 28796 ft 515 kts 177°
2026-04-26 04:20 26.95970 113.85445 29063 ft 518 kts 177°
2026-04-26 04:20 26.92394 113.86004 29328 ft 520 kts 177°